Regional Weather Roundup
Issued by NWS Wakefield, VA

Home | Current Version | Previous Version | Graphics & Text | Print | Product List | Glossary On
Versions: 1 2 3 4 5 6 7 8 9 10 11 12 13 14 15 16 17 18 19 20 21 22 23 24 25 26 27 28 29 30 31 32 33 34 35 36 37 38 39 40 41 42 43 44 45 46 47 48 49 50
000
ASUS41 KAKQ 300415
RWRAKQ

REGIONAL WEATHER ROUNDUP
NATIONAL WEATHER SERVICE WAKEFIELD VA
1200 AM EDT SAT MAY 30 2015

Note: "fair" indicates few or no clouds below 12,000 feet with no
significant weather and/or obstructions to visibility. * = Denotes
station may not report precipitation (e.g., rain,snow,etc.),
thunder or fog.

VAZ042-051-052>054-056-300500-
NORTHERN VIRGINIA

CITY           SKY/WX    TMP DP  RH WIND       PRES   REMARKS
WASH NATIONAL  PTCLDY    76  65  68 S9        30.20F
DULLES         PTCLDY    69  67  93 S6        30.19F
FORT BELVOIR   CLEAR     71  66  83 SE6       30.19F
QUANTICO       CLEAR     73  65  75 S9        30.20F
FREDERICKSBRG* FOG       69  69 100 CALM      30.19S VSB 1
STAFFORD*      FOG       65  64  97 CALM      30.23F VSB 1/2
WARRENTON      PTCLDY    66  65  99 CALM      30.19F
CULPEPER*      CLEAR     65  64  97 CALM      30.20S FOG
MANASSAS*      CLEAR     68  68 100 CALM      30.19F
LEESBURG*      PTCLDY    72  68  88 S6        30.20F
WINCHESTER     PTCLDY    72  68  88 S5        30.19S
FRONT ROYAL*   FAIR      64  64 100 CALM      30.18S
LURAY*         FAIR      68  68 100 CALM      30.20S FOG
$$

VAZ048-049-060>072-079>083-300500-
CENTRAL AND SOUTH CENTRAL VIRGINIA

CITY           SKY/WX    TMP DP  RH WIND       PRES   REMARKS
RICHMOND       MOCLDY    71  66  84 SE8       30.20F
CHESTERFIELD*  NOT AVBL
PETERSBURG*    PTCLDY    71  70  98 SE3       30.21S
HANOVER        CLEAR     70  66  87 VRB3      30.21F
TAPPAHANNOCK*  CLEAR     70  64  81 SE3       30.22S
QUINTON*       FAIR      70  67  88 SE5       30.21S
CHARLOTTSVILLE MOCLDY    69  66  90 CALM      30.20S
GORDONSVILLE*  CLOUDY    67  67  98 W5        30.19S
ORANGE*        CLEAR     68  68 100 CALM      30.21F
LOUISA*        PTCLDY    70  66  88 E3        30.19S
BUMPASS*       FAIR      69  65  88 SE5       30.20S
FARMVILLE*     PTCLDY    72  72 100 CALM      30.18S
CREWE*         FAIR      67  66  96 S5        30.20S
FORT PICKETT*  FAIR      70  66  87 S10       30.20F
CHASE CITY*    FAIR      70  66  87 SE3       30.20S
CLARKSVILLE*   FAIR      70  61  73 S3        30.19S
SOUTH HILL*    PTCLDY    71  65  83 S6        30.26S
LAWRENCEVILLE* FAIR      70  66  88 CALM      30.20F
EMPORIA*       CLEAR     68  64  88 CALM      30.23S
$$

VAZ088>098-300500-
SOUTHEAST VIRGINIA

CITY           SKY/WX    TMP DP  RH WIND       PRES   REMARKS
NORFOLK        CLEAR     72  67  84 S6        30.22S
VIRGINIA BEACH MOCLDY    72  66  81 SE8       30.22F
NORFOLK NAVAL  PTCLDY    76  67  73 S7        30.23S
WEST POINT*    PTCLDY    72  66  82 E5        30.23F
SALUDA*        FAIR      69  66  89 SE5       30.21F
NEWPORT NEWS   PTCLDY    76  66  71 S5        30.22S
LANGLEY AFB    PTCLDY    73  67  83 SE7       30.21S
FORT EUSTIS    PTCLDY    72  72 100 SE8       30.20S
WILLIAMSBURG*  PTCLDY    75  70  83 S12       30.23S
HR EXEC AP*    FAIR      70  64  83 SE3       30.24S
FRANKLIN*      CLEAR     71  67  89 SE3       30.22S
WAKEFIELD      CLEAR     71  67  87 CALM      30.22S
$$

VAZ020-022-025-037-045-300500-
WEST CENTRAL AND SOUTHWEST VIRGINIA

CITY           SKY/WX    TMP DP  RH WIND       PRES   REMARKS
STAUNTON*      PTCLDY    70  67  89 CALM      30.23S
WAYNESBORO*    FAIR      67  66  97 CALM      30.22S
HOT SPRINGS VA CLEAR     63  63  99 S7        30.30S
LYNCHBURG      MOCLDY    67  65  93 CALM      30.21F
DANVILLE       CLEAR     68  65  90 CALM      30.19F
SOUTH BOSTON*  FAIR      65  63  95 CALM      30.18F
MARTINSVILLE   CLEAR     65  65 100 CALM      30.23S FOG
ROANOKE        PTCLDY    69  66  90 CALM      30.23S
BLACKSBURG     MOCLDY    64  63  97 CALM      30.28F FOG
DUBLIN*        FOG       64  64 100 CALM      30.26S VSB 1/4
MARION*        CLEAR     64  61  91 CALM      30.28F
HILLSVILLE*    CLEAR     63  62  94 SE3       30.29F
RICHLANDS*     FAIR      68  61  78 S5        30.24S
WISE*          PTCLDY    68  59  73 S6        30.25S
ABINGDON*      CLEAR     66  65  99 CALM      30.23S
$$

MDZ021>025-VAZ099-100-300500-
SOUTHERN MARYLAND AND THE DELMARVA PENINSULA

CITY           SKY/WX    TMP DP  RH WIND       PRES   REMARKS
PATUXENT RIVER PTCLDY    71  66  84 S6        30.21F
BAY BRIDGE APT   N/A    N/A N/A N/A S8        30.21S
LEONARDTOWN    PTCLDY    70  64  83 SE3       30.23S
DOVER          MOCLDY    69  68  97 S7        30.20S
GEORGETOWN     PTCLDY    67  64  90 S6        30.24F
EASTON         PTCLDY    70  70 100 S6        30.26S
CAMBRIDGE      PTCLDY    70  64  83 CALM      30.22S
SALISBURY      PTCLDY    63  62  97 SE3       30.24S
OCEAN CITY     PTCLDY    67  65  93 CALM      30.25R
WALLOPS ISLAND PTCLDY    67  67 100 S6        30.24F
ACCOMACK*      PTCLDY    68  68 100 S6        30.23F
$$

NCZ012>017-030>032-300500-
NORTH CENTRAL AND EASTERN NORTH CAROLINA

CITY           SKY/WX    TMP DP  RH WIND       PRES   REMARKS
ROANOKE RAPIDS FAIR      70  64  83 S5        30.21S
RALEIGH        PTCLDY    73  63  70 SE6       30.21S
ELIZABETH CITY CLEAR     72  69  90 S6        30.23S
AHOSKIE*       CLEAR     69  66  91 SE3       30.22S
EDENTON*       CLEAR     72  68  87 SE5       30.22F
CURRITUCK*     CLEAR     71  68  90 CALM      30.23F
KILL DEVIL HLS   N/A     72  69  91 SE3       30.22S
MANTEO         CLEAR     72  69  90 SE6       30.23F
CAPE HATTERAS  CLEAR     75  65  70 SE10      30.23S
TARBORO*       FAIR      72  67  83 CALM      30.22F
GOLDSBORO      CLEAR     72  66  83 CALM      30.19F
WASHINGTON     CLEAR     71  66  86 CALM      30.23S
GREENVILLE     CLEAR     72  68  88 SE3       30.23S
NEW BERN       CLEAR     69  66  90 CALM      30.23S
WILMINGTON     PTCLDY    75  68  78 S5        30.21S
$$

VAZ048-300500-
ELSEWHERE

CITY           SKY/WX    TMP DP  RH WIND       PRES   REMARKS
HARRISBURG PA  PTCLDY    75  66  73 S6        30.18S
BALTIMORE      MOCLDY    72  63  73 S6        30.19F
ANNAPOLIS      PTCLDY    73  66  78 S13       30.20F
ANDREWS AFB    CLEAR     70  65  84 S7        30.20F
PHILADELPHIA   MOCLDY    72  62  71 S8        30.22F
HENDERSON NC   CLEAR     72  61  68 S5        30.21S
GREENSBORO     PTCLDY    72  59  63 S5        30.19F
ROCKY MOUNT    CLEAR     73  67  81 SE3       30.21F
$$

VAZ100-300500-
MARINE

STATION/POSITION TIME  TEMP    WIND        PRES    WAVE   SWELL
                       AIR SEA DIR/SP/G            HT/PER HT/PER
                 (UTC) (F)     (DEG/KT/KT) (MB)    (FT/S) (FT/S)
BRANDYWINE LGT   0300   66 65  180/ 12/ 13 1024.4R
CAPE MAY NJ      0300   66 69  150/  5/  9 1024.0R
LEWES DE         0300   69 67  170/  5/  5 1024.0S
15NM E FENWICK I 0350   66 65              1024.0F   3/ 8
OCEAN-CITY-INLET 0300   65 58  210/  1/  2 1024.0S
WACHAPREAGUE VA  0300   70 78  170/  6/  9 1024.0S
THOMAS POINT MD  0400   72 71  180/ 15/ 16 1023.2F
GOOSES REEF MD   0400   72 71  180/ 16/ 17 1023.7F   1/ 3
COVE POINT MD    0300   71     190/ 13/ 15 1024.0F
SOLOMONS ISLAND  0300      75                N/A
BISHOPS HEAD MD  0300   73 78  160/ 14/ 17 1023.1F
PINEY POINT MD   0300          170/ 11/ 12   N/A
CAMBRIDGE MD     0300   71 75  140/  4/  6 1023.3F
LEWISETTA VA     0300   72 77              1023.0F
RAPPAHANNOCK LGT 0300          140/ 11/ 11 1024.3F
STINGRAY PT      0400   72 74  170/ 14/ 16 1022.9F   1/ 3
YORK RVR RNG VA  0300   73     160/ 13/ 14 1022.7F
YORKTOWN VA      0300   73 71  150/  4/  5 1023.2R
JAMESTOWN VA     0400   73 78  150/ 10/ 12   N/A
DOMINION TERM VA 0300   73     150/  7/  9 1023.6R
KIPTOPEKE VA     0300      78  160/ 10/ 12   N/A
CHES BAY BRIDGE  0300   71 63  130/  9/ 11 1023.1F
CAPE HENRY VA    0300   69     150/  9/ 11 1022.4R
CHESAPEAKE LGHT  0300   68     150/ 15/ 16 1024.3R
WILLOUBY STN VA  0300   73     160/ 11/ 13 1024.1F
CAPE HENRY BUOY  0328      63                N/A     2/ 7
1ST LANDING BUOY 0400      68              1023.2F
CAPE CHARLES BUO 0326      67                N/A     2/ 9   2/ 9
OFFSHORE WE BUOY 0311      69                N/A     3/ 9   3/ 9
64NM E OF VA BCH 0350   69 67  120/  8/  8 1023.5F   3/ 8   3/ 8
DUCK PIER NC     0300   70 59  140/  7/  8 1022.8F
44100 DUCK FRF   0324      72                N/A     3/ 9
44056 DUCK FRF   0311      66                N/A     3/ 9
OREGON INLET NC  0300   73 77  100/  5/  8 1023.8S
HATTERAS NC      0300   76 78  120/  7/ 11 1023.1F
DIAMOND SHLS NC  0350   76 80  120/ 12/ 16 1023.5F   4/ 8   3/ 8
CAPE LOOKOUT NC  0400   75     120/  9/ 10 1023.0F
$$



USA.gov is the U.S. government's official web portal to all federal, state and local government web resources and services.